Wind_Speed
5 6 7 6 4 5 7 3 5 7 8 7 6 4 7 7 7 5 4 6 2 5 8 11 12 13 14 13 12 15 16 15 15 16 15 14 15 14 15 15 14 15 15 14 15 17 19 20 19 18 17 16 15 15 14 14 13 12 10 8 7 7 5 3 2 2 1 2 3 5 6 8 9 10 10 6 6 7 7 11 10 9 10 12 13 13
4 7 9 4 4 5 3 2 5 6 6 6 7 7 8 9 8 3 3 5 2 4 9 12 13 15 14 13 13 14 15 15 17 17 17 17 17 17 17 17 17 17 16 17 17 17 18 20 21 20 19 17 17 16 16 15 13 12 11 9 8 8 6 6 4 3 2 1 2 3 5 8 8 10 13 9 7 9 9 9 9 9 10 11 11 11
7 9 6 4 7 6 2 2 5 6 6 7 7 8 8 7 6 3 5 3 4 4 8 12 14 13 13 13 13 14 14 15 19 19 19 19 19 19 19 19 18 17 17 18 16 16 17 19 22 21 20 19 18 17 16 15 14 13 12 11 10 9 8 8 6 4 3 4 4 3 5 7 7 11 17 16 10 8 6 6 6 6 8 11 10 7
5 4 3 6 6 2 3 4 6 6 6 7 7 7 7 5 5 4 5 4 4 4 8 11 11 9 10 12 13 17 19 18 19 20 20 21 20 20 18 16 16 15 17 17 14 15 17 19 21 22 21 20 18 17 16 16 15 15 13 12 12 12 10 9 8 6 6 6 5 6 7 9 10 11 14 14 11 8 6 4 4 6 10 11 8 5
3 6 8 4 4 4 6 6 7 7 6 8 8 8 7 4 4 4 1 2 4 7 9 9 8 9 11 14 13 15 19 19 20 21 21 21 20 19 18 17 16 15 15 15 15 16 17 19 21 22 21 20 19 18 17 16 16 16 14 13 14 13 11 11 11 8 6 4 3 5 6 7 8 8 8 10 11 10 8 4 6 10 11 8 6 6
3 8 7 4 4 6 8 7 8 7 6 8 9 9 8 7 5 5 3 4 7 7 9 8 7 6 8 13 12 11 13 16 17 19 20 20 20 19 20 18 17 15 13 14 15 17 18 19 21 22 21 20 19 19 18 17 17 16 15 14 16 14 13 14 13 10 7 3 2 1 0 2 2 2 5 10 13 13 10 7 8 9 8 6 6 6
2 5 4 4 5 8 9 8 9 8 7 6 4 7 6 7 6 7 6 7 7 4 7 8 7 5 2 7 11 10 9 11 12 14 17 19 19 19 19 17 16 16 16 15 14 16 18 18 20 21 21 20 20 19 19 17 17 17 15 16 17 15 14 16 14 13 9 4 5 5 3 2 2 1 5 10 12 13 12 11 10 8 5 5 5 5
5 6 4 5 7 8 7 9 9 9 8 3 3 5 5 7 8 8 8 8 7 4 5 10 9 7 6 7 7 10 10 10 11 11 13 16 18 17 17 16 16 17 17 16 15 16 18 18 19 20 21 21 20 19 18 18 19 18 16 17 19 16 15 17 15 15 12 6 7 8 6 4 2 3 7 9 10 11 11 12 12 10 7 5 5 5
5 7 6 7 8 7 8 9 5 8 8 1 2 3 4 7 8 8 8 8 8 6 5 10 9 6 7 7 5 8 9 10 11 11 11 13 15 16 16 15 16 17 17 17 17 17 17 18 19 20 21 21 20 19 18 19 19 18 17 19 19 17 17 19 16 16 15 11 10 9 6 5 4 6 7 7 8 9 10 11 12 12 11 9 6 5
3 6 6 8 8 7 10 8 3 7 7 0 1 5 5 7 8 8 8 7 8 8 8 9 8 7 7 6 6 7 9 10 9 10 11 13 15 15 15 15 15 16 16 17 17 18 18 18 19 20 21 20 19 19 19 20 19 17 18 19 19 18 19 20 19 18 18 16 13 11 10 9 7 7 6 6 7 8 9 10 11 11 11 11 11 9
4 5 5 7 9 8 6 2 2 7 6 1 4 7 7 8 7 7 7 7 8 8 10 13 11 9 7 5 5 5 6 6 6 7 9 12 14 14 14 15 15 16 16 17 17 18 18 18 19 20 20 20 19 19 20 20 19 18 18 19 19 19 20 21 21 20 19 18 16 14 13 12 10 8 8 8 9 9 9 9 10 11 11 11 12 13
8 8 6 8 12 11 5 3 7 9 8 5 7 7 7 7 7 7 6 7 8 7 10 13 11 10 8 6 5 1 5 6 5 6 8 11 13 14 14 14 15 16 16 17 17 18 18 19 20 20 20 19 19 21 23 21 20 18 18 18 19 20 21 22 23 21 21 20 18 17 15 14 12 10 9 9 9 10 10 9 10 10 11 11 12 13
9 10 9 10 13 12 9 7 8 8 8 8 8 7 8 7 6 7 7 7 8 10 12 10 8 9 8 8 8 3 5 7 7 8 8 10 13 14 14 15 15 15 16 17 18 18 19 20 20 21 20 19 20 23 23 21 20 19 18 19 19 21 21 22 23 22 21 21 19 18 17 15 14 12 10 10 10 11 11 10 10 10 10 11 11 12
7 10 11 11 10 11 11 8 6 7 8 8 8 8 8 7 7 9 8 8 9 9 9 6 6 8 8 8 10 10 9 9 9 11 10 10 13 13 14 15 16 17 18 18 19 20 21 21 21 21 21 21 21 22 22 21 21 20 19 19 19 20 21 21 22 21 21 21 20 19 18 17 15 14 12 11 11 11 11 11 11 11 12 12 14 15
8 7 8 8 6 9 12 12 9 8 7 9 10 9 9 8 8 9 8 7 8 6 2 3 5 7 6 3 5 9 10 10 12 14 13 12 13 13 14 15 15 17 18 19 19 20 20 22 21 21 21 21 21 20 19 19 20 20 18 18 18 18 19 20 20 20 20 20 20 20 19 17 16 15 14 13 13 12 11 12 12 13 14 15 16 19
10 8 4 7 6 7 11 12 11 11 9 8 8 9 10 8 7 8 9 10 10 8 4 5 6 6 6 6 5 6 8 10 13 15 16 16 16 15 15 15 16 16 16 18 19 19 19 21 22 21 20 20 19 20 19 18 19 19 18 17 16 15 17 19 19 20 20 20 21 20 19 18 17 16 15 14 14 14 13 14 14 14 16 17 18 20
8 8 3 5 7 8 11 11 10 10 8 5 6 9 9 10 10 8 10 10 10 10 9 8 8 7 8 10 11 13 12 12 13 14 16 17 17 17 16 15 16 17 17 18 18 19 19 20 21 21 20 20 19 19 19 19 19 20 17 16 15 12 16 18 18 19 19 20 22 21 19 19 18 17 16 16 15 15 15 15 16 17 18 20 21 21
6 8 6 8 10 10 12 12 11 11 10 7 8 8 7 9 10 7 8 9 9 10 9 8 11 11 9 8 9 14 16 14 14 13 14 16 17 17 17 16 16 17 17 18 19 19 19 19 20 20 20 20 19 19 18 17 19 21 18 16 14 12 15 17 17 18 19 21 22 21 20 20 19 18 17 17 17 16 17 17 18 19 21 21 22 23
5 8 9 11 14 11 8 9 10 13 16 14 11 10 8 8 9 7 8 8 9 10 8 10 14 12 11 9 9 13 14 12 13 14 13 15 16 17 17 17 16 16 17 18 19 19 19 19 20 20 20 20 19 19 18 16 20 23 20 16 15 13 14 17 17 18 20 21 22 22 21 21 20 19 18 18 18 18 18 19 20 21 22 23 24 23
4 7 8 9 11 10 6 7 8 10 13 13 11 10 9 8 9 9 7 7 9 9 9 11 13 11 10 10 10 14 15 12 12 13 13 15 17 18 17 15 15 15 16 17 18 19 19 20 20 21 20 21 19 18 18 17 21 23 20 17 15 13 14 17 18 18 20 21 22 23 22 21 20 19 19 19 19 19 20 21 22 23 24 23 22 20
5 6 7 9 10 9 7 8 9 10 9 8 9 9 9 8 8 9 8 9 10 9 9 10 11 9 8 8 10 12 13 13 12 11 12 15 17 18 17 15 14 14 15 17 18 18 19 20 20 20 20 21 20 20 20 19 20 21 19 16 15 13 14 17 17 18 20 21 22 23 23 22 21 20 20 20 20 21 21 22 23 23 20 18 17 17
4 6 7 9 9 9 10 10 12 14 11 9 8 8 9 8 8 9 9 9 9 9 9 10 11 10 8 7 9 10 10 11 14 13 11 13 16 18 17 15 15 15 16 17 18 18 18 19 20 20 21 21 18 18 19 19 21 21 19 16 15 14 14 17 17 18 19 21 23 23 23 22 21 20 20 19 20 21 21 22 22 20 16 16 16 17
2 5 8 9 10 12 15 17 17 17 17 14 12 10 10 9 9 9 10 9 9 10 11 11 11 11 9 10 11 11 11 12 15 16 13 12 15 18 17 15 16 17 17 18 19 19 19 19 20 20 21 19 17 15 16 18 20 19 18 17 16 15 15 16 16 16 18 20 22 23 22 22 21 20 19 19 20 21 21 21 20 18 16 17 17 18
3 5 8 9 10 12 16 17 17 17 16 14 13 12 12 11 11 10 10 9 8 10 11 10 11 10 9 10 11 11 13 14 15 17 17 17 17 17 17 17 18 20 20 19 20 20 20 20 20 20 19 17 15 15 16 17 17 16 16 16 15 15 14 15 15 16 17 18 19 20 21 20 19 18 19 19 20 21 21 20 19 18 17 18 18 19
3 5 6 8 9 9 10 11 11 13 11 8 8 8 9 11 13 11 10 8 8 12 14 12 10 10 8 9 12 12 13 15 17 18 19 21 20 19 21 21 20 21 21 22 22 21 22 22 21 20 18 17 17 18 18 16 14 14 15 14 14 14 14 15 16 17 16 16 16 17 18 18 17 17 18 19 20 20 20 20 20 19 18 18 19 20
5 6 6 7 9 8 8 7 5 6 6 5 7 9 10 12 13 11 9 9 10 13 15 12 10 11 12 14 17 16 16 17 19 21 22 21 20 20 22 23 23 24 23 23 24 24 23 22 22 21 19 18 19 18 16 15 14 14 15 14 14 14 15 16 17 17 16 15 14 14 15 15 16 17 18 19 19 20 21 20 20 19 18 18 19 20
6 8 9 10 12 12 13 13 11 11 10 10 13 15 15 15 15 13 10 10 11 12 12 12 13 15 16 18 18 17 18 18 17 21 25 22 21 23 23 22 22 25 26 26 26 26 26 24 23 21 19 18 18 16 15 15 15 15 15 14 14 14 15 17 18 17 16 16 15 13 12 13 14 16 18 19 19 21 21 20 19 18 17 18 20 20
5 9 12 14 17 18 19 20 19 16 15 17 18 20 20 20 20 17 13 14 15 13 12 14 16 16 16 19 21 19 19 19 17 21 26 25 22 24 27 27 28 28 25 25 26 27 27 26 24 22 20 19 17 16 16 15 15 16 15 14 14 15 16 17 17 17 16 16 15 13 12 13 14 16 18 19 19 19 18 17 17 17 17 18 20 20
6 9 12 15 19 21 22 22 20 18 17 18 21 22 22 23 22 19 18 19 18 14 13 17 18 17 16 20 23 23 22 22 23 25 28 29 27 26 28 28 28 30 28 23 25 28 27 25 24 22 21 20 18 18 18 17 16 17 15 14 15 16 16 16 16 16 15 14 13 12 12 13 14 15 16 15 15 15 15 16 17 17 18 19 20 20
7 9 12 14 17 21 22 21 20 19 18 19 22 24 25 24 23 22 22 22 21 18 18 19 19 18 18 20 24 27 28 28 27 29 30 31 30 28 28 29 26 26 29 28 27 27 27 26 23 22 21 20 19 20 18 17 17 16 15 16 16 17 16 16 15 15 14 13 12 11 11 10 11 12 12 12 12 13 15 16 17 18 18 19 20 20
8 8 10 12 14 17 20 18 18 20 19 20 23 25 25 23 21 21 20 17 17 18 17 18 17 16 17 21 25 29 32 29 26 29 31 32 32 30 30 30 29 28 29 31 33 31 27 26 25 23 21 20 20 20 18 17 16 15 15 17 17 17 16 15 15 15 13 12 11 10 9 9 10 10 10 11 12 14 15 16 17 18 18 20 21 21
8 8 11 11 11 14 17 16 18 19 19 21 25 24 22 19 17 17 16 14 14 14 14 15 14 13 15 19 22 25 27 25 24 28 31 31 32 33 32 33 33 32 33 33 33 34 30 26 25 22 20 20 19 19 18 16 15 15 16 17 17 16 16 15 14 14 12 11 10 9 9 9 9 9 10 11 14 16 16 16 18 18 19 21 21 21
9 10 10 10 11 14 17 16 15 15 14 17 18 17 17 17 18 18 17 17 18 15 13 14 13 13 16 17 18 20 21 23 25 27 28 27 29 32 35 38 36 34 36 36 34 35 34 26 21 20 19 19 19 18 18 17 16 15 16 17 16 16 16 15 14 12 11 10 9 8 8 8 8 9 10 11 14 16 16 16 18 19 21 22 22 21
12 11 10 9 10 13 17 16 13 12 14 14 11 11 15 17 18 19 17 17 19 16 13 14 15 18 19 18 19 20 21 24 27 29 30 28 27 29 34 35 31 28 31 33 33 34 32 23 19 19 19 18 17 16 16 15 15 15 16 16 16 16 16 15 13 11 10 9 8 7 8 8 9 10 11 12 14 16 16 18 19 21 23 24 23 22
12 12 11 10 9 11 13 12 12 14 14 13 12 13 16 17 17 19 18 18 19 19 17 16 18 21 20 19 21 22 22 25 28 29 31 31 29 27 28 31 29 25 25 26 29 30 27 22 19 18 18 17 15 15 14 13 13 14 16 16 16 16 15 13 12 11 10 8 7 7 7 8 9 10 12 12 14 16 18 19 21 22 24 24 23 22
13 12 10 10 10 11 11 11 13 14 13 15 16 15 15 15 15 16 17 17 18 18 17 17 18 18 17 17 19 19 22 25 26 28 30 30 32 29 24 27 28 23 21 24 27 25 22 20 18 17 17 16 15 14 13 13 14 14 16 16 16 15 14 13 11 10 9 8 7 7 7 8 9 11 12 13 15 17 19 21 22 23 23 22 21 22
16 13 11 11 11 11 12 13 13 14 14 16 14 9 7 8 8 7 9 12 14 15 14 14 14 14 13 16 17 19 21 21 19 24 27 27 30 29 25 26 24 19 19 21 22 21 19 18 16 16 16 14 13 13 11 12 14 15 16 17 16 14 13 12 10 9 8 7 6 6 7 8 10 11 12 14 15 18 20 22 23 24 23 22 22 23
16 14 12 12 10 10 12 12 11 12 13 12 7 0 2 4 5 3 5 10 12 10 7 6 8 10 12 14 15 17 19 15 12 16 20 21 25 27 27 27 24 22 22 21 21 19 17 16 15 14 14 13 11 11 10 12 15 16 17 17 15 14 13 11 10 8 6 6 5 6 7 8 10 12 13 14 16 19 21 23 24 24 22 21 23 24
17 14 12 12 11 11 12 12 11 11 9 9 6 3 3 4 4 4 6 8 5 5 5 5 7 10 11 12 15 14 13 11 10 12 17 23 28 30 28 28 26 23 22 21 20 18 16 16 14 12 12 11 10 11 11 13 16 17 17 17 15 14 12 10 9 7 5 4 5 6 8 8 10 12 13 14 16 18 20 22 23 23 22 21 22 23
15 12 11 12 12 12 12 11 10 8 9 13 10 1 1 2 1 2 8 5 4 7 8 7 9 11 12 13 13 11 9 10 12 16 22 28 31 30 24 25 23 20 21 19 17 16 15 13 12 10 9 9 9 10 12 14 17 18 16 15 14 12 11 9 7 5 3 4 4 6 7 8 10 12 13 14 16 17 19 20 21 22 22 21 21 22
11 10 10 12 12 12 13 12 9 8 8 9 8 5 3 3 4 7 8 6 8 12 11 10 10 12 12 13 12 10 13 17 21 25 26 23 19 16 14 17 15 13 15 15 15 14 11 10 10 9 8 8 9 10 13 16 18 17 16 14 13 11 10 8 6 3 2 3 4 5 7 9 10 12 13 14 14 15 17 19 20 20 21 21 20 21
10 9 10 11 10 10 11 10 10 9 3 3 7 8 4 4 6 7 8 14 18 17 14 13 13 12 12 14 15 15 20 25 26 27 24 18 14 14 13 13 11 8 8 11 13 12 9 8 9 8 8 8 9 11 14 17 18 17 15 14 12 10 9 7 4 2 1 2 4 6 8 9 10 11 12 13 14 15 17 19 20 19 19 20 20 21
9 9 9 10 9 9 10 10 10 7 1 3 5 7 2 4 8 11 14 19 20 19 19 18 15 13 13 15 17 20 23 26 26 25 23 19 16 17 16 13 12 10 7 7 10 11 9 8 8 8 8 8 9 12 16 18 18 17 15 13 11 9 8 6 4 2 1 2 4 6 8 9 10 11 12 13 14 15 17 20 21 19 19 19 20 21
9 9 9 8 7 7 9 9 7 6 5 6 10 10 6 9 15 17 17 17 16 18 20 19 17 15 15 16 20 22 23 24 26 25 20 16 13 15 16 13 12 13 10 9 10 10 9 8 7 8 9 8 10 14 17 19 18 16 14 12 10 9 7 5 3 2 0 3 5 6 8 9 10 11 12 13 14 15 17 19 20 19 18 18 19 21
8 9 10 10 8 7 9 9 10 14 18 19 19 18 18 18 17 15 15 15 15 15 14 16 18 17 16 18 20 21 21 22 24 23 18 14 14 15 15 13 12 13 11 9 9 8 7 7 7 8 8 8 11 15 18 19 18 16 14 12 10 8 7 5 3 2 1 3 4 6 7 9 10 12 13 14 14 15 16 18 19 19 19 19 20 21
14 15 13 10 8 9 13 16 16 19 22 22 20 20 19 14 10 10 11 12 15 14 13 15 18 18 17 19 20 21 22 22 23 22 14 8 11 16 16 13 11 10 10 9 8 7 7 6 7 8 8 9 12 15 18 18 17 15 14 12 10 8 6 5 3 2 1 2 4 6 7 9 11 12 14 14 14 14 15 17 19 20 21 21 21 21
12 10 8 8 8 8 10 12 14 16 18 20 22 21 14 6 4 5 8 11 15 16 14 15 17 17 17 18 19 21 21 20 21 19 10 6 12 17 14 12 11 10 10 9 8 7 7 6 7 8 8 9 12 15 18 18 16 15 13 11 9 8 6 5 3 2 1 3 4 6 8 10 11 13 14 14 14 14 15 17 18 20 21 23 24 24
7 2 3 8 9 9 11 14 17 22 24 26 26 19 9 6 6 7 9 15 18 16 14 15 15 15 16 18 18 19 20 20 19 15 12 11 13 14 11 10 10 9 8 8 7 7 7 6 7 8 9 10 12 15 17 17 16 15 13 11 10 8 6 4 4 3 2 3 4 7 9 10 11 13 14 14 15 15 15 16 19 21 24 26 28 28
13 8 8 11 11 12 14 17 20 21 22 23 21 11 5 7 10 11 12 18 21 17 14 14 13 13 16 17 15 13 13 13 12 10 12 13 14 13 11 8 8 8 7 7 6 6 5 5 6 7 9 11 13 15 17 17 16 15 13 12 10 9 6 4 5 4 3 3 5 8 10 9 10 12 14 14 15 15 15 16 20 23 25 27 29 29
14 11 11 11 10 10 11 13 15 13 11 14 16 11 8 11 13 12 14 17 19 16 13 13 14 15 14 11 7 5 4 5 6 6 7 7 7 9 9 7 7 8 6 5 6 5 4 5 6 8 10 12 13 15 17 17 16 15 13 12 10 9 6 4 3 2 2 3 4 8 11 10 10 13 14 15 16 16 15 16 19 22 25 27 28 27
14 13 12 11 10 12 14 16 16 14 13 14 16 15 16 16 15 15 16 16 15 13 12 12 14 15 11 4 3 4 6 4 5 6 4 2 3 4 5 5 5 6 5 6 6 5 3 5 7 9 11 13 13 15 16 17 16 15 14 12 10 8 6 4 3 1 2 4 5 9 11 10 11 13 14 15 17 17 16 16 16 19 23 26 27 27
Wind_Direction
225 227 217 229 250 215 197 234 323 346 349 328 316 289 273 271 263 264 132 133 236 253 248 253 251 248 243 240 222 199 199 214 223 224 223 224 227 230 229 231 235 236 237 231 222 213 203 198 194 189 188 188 189 190 189 188 187 187 190 198 215 228 223 203 156 161 155 67 38 29 29 18 19 12 5 356 323 317 290 284 286 273 267 264 264 260
221 246 234 212 37 51 99 8 327 314 307 288 276 268 260 257 256 270 97 122 173 250 261 262 256 253 246 243 241 219 203 208 221 226 228 232 233 234 238 240 241 240 238 236 228 213 203 199 194 191 190 191 194 195 193 194 194 193 192 192 212 232 233 227 213 200 227 282 334 1 5 9 19 7 5 2 323 315 311 299 288 280 273 265 263 259
213 238 236 130 83 67 70 294 273 265 271 261 252 253 255 257 244 184 131 185 226 238 261 261 255 253 246 245 249 240 230 219 217 223 231 238 240 237 238 240 242 242 240 239 227 207 201 199 195 193 192 193 197 199 198 199 198 198 197 192 206 223 227 239 239 199 222 276 300 318 331 347 1 358 5 11 357 338 330 316 303 292 271 261 259 257
228 210 141 101 99 124 222 233 238 241 241 242 248 252 249 254 260 224 167 187 231 246 268 271 265 261 249 244 246 243 242 238 228 226 232 238 241 241 240 242 245 244 242 236 216 197 198 200 197 194 193 195 197 199 202 203 200 201 202 195 205 218 218 235 248 235 252 280 293 306 320 336 353 6 15 18 9 345 324 320 306 286 270 264 262 263
244 115 118 116 125 188 220 215 224 241 237 230 236 255 268 287 282 266 171 161 239 238 248 265 266 257 243 236 237 236 234 237 237 234 233 234 236 239 242 246 248 245 237 225 205 198 200 199 197 196 196 195 197 201 202 205 204 202 203 200 208 222 226 239 255 257 265 279 287 316 339 358 11 23 24 14 6 353 338 311 282 289 289 280 275 274
222 113 136 170 175 210 226 220 219 233 253 246 223 225 268 300 286 267 255 236 253 239 211 225 259 253 227 224 228 227 222 224 232 237 236 233 230 234 238 238 238 233 225 219 210 204 200 196 196 197 197 196 198 202 203 205 208 206 204 204 211 219 230 246 258 262 262 235 209 249 27 30 23 28 4 0 2 3 357 331 299 296 302 298 289 279
159 125 185 192 207 226 229 235 228 223 249 266 195 178 228 273 266 255 250 235 259 267 174 197 266 287 230 218 214 207 208 214 223 234 237 233 229 230 231 226 221 218 213 213 214 205 197 195 195 195 196 197 198 200 203 205 210 210 204 207 217 218 231 250 256 260 263 235 234 258 255 276 323 322 338 349 356 4 6 355 339 322 306 296 294 288
148 156 190 195 225 231 227 241 231 219 238 264 107 158 206 244 244 239 241 239 260 288 173 197 243 276 273 255 214 188 198 212 215 221 225 226 225 222 221 216 210 209 207 205 209 206 198 195 194 194 193 194 196 197 201 205 212 216 206 210 224 221 232 254 258 260 261 231 240 270 277 279 292 299 323 340 351 1 4 4 1 351 335 304 287 287
148 184 193 203 228 230 229 239 206 203 233 248 98 218 224 238 237 233 240 244 253 267 243 220 222 247 260 249 193 178 210 226 216 213 213 214 218 214 213 213 208 207 205 202 204 204 200 196 193 191 190 191 195 195 198 208 217 220 213 219 232 229 236 255 261 262 261 248 247 261 261 258 275 301 322 334 342 352 354 356 359 359 358 348 330 308
157 194 205 213 226 229 232 237 152 190 231 5 217 246 243 241 236 236 245 252 253 251 257 247 216 224 259 241 193 193 219 232 220 212 208 207 214 212 208 212 211 208 203 200 201 201 199 195 190 188 189 191 194 194 199 212 221 221 221 228 237 238 244 256 261 260 261 260 255 253 255 258 267 288 305 311 318 331 338 343 347 350 357 357 351 344
194 180 216 227 233 247 250 244 165 216 235 233 238 240 233 229 227 236 242 254 263 247 244 248 224 219 259 262 237 211 192 211 223 219 207 200 206 207 204 209 210 207 203 201 200 198 195 193 190 188 190 190 190 195 203 215 222 221 226 234 240 244 247 255 261 260 259 260 256 252 257 261 263 272 285 295 305 314 321 327 332 335 341 344 344 345
209 191 211 222 229 245 252 212 213 225 230 224 234 241 234 225 223 237 237 239 257 251 245 246 222 216 240 255 277 301 148 186 230 241 220 197 199 204 204 208 212 211 208 203 202 199 194 191 190 188 190 188 191 205 211 216 223 225 230 237 242 246 247 252 260 260 257 256 253 253 256 257 259 264 272 282 292 299 304 310 316 323 328 331 333 336
215 213 211 208 212 221 229 223 209 210 220 227 232 236 242 242 233 238 239 235 240 239 247 247 211 213 240 257 276 277 175 195 222 246 234 199 198 205 207 211 214 218 216 210 206 204 200 197 193 190 192 192 197 211 216 218 224 229 236 243 246 246 247 252 258 260 258 254 252 251 251 253 257 261 265 273 282 289 294 300 306 311 315 319 319 320
222 223 211 206 200 204 223 236 218 204 211 224 234 232 239 252 252 249 247 246 249 244 246 244 219 230 248 259 259 246 223 204 206 228 232 208 203 208 214 218 215 216 220 219 214 210 207 205 201 198 199 197 199 210 216 220 226 230 237 246 249 246 246 253 260 262 259 254 252 251 249 251 255 260 265 270 276 281 286 290 296 301 304 307 308 308
262 251 208 207 201 197 217 236 249 255 232 221 237 246 247 252 258 265 271 272 278 292 283 209 219 236 242 252 253 243 233 214 205 214 216 210 212 216 221 228 227 220 218 220 220 217 210 205 204 204 204 201 202 206 211 219 227 232 236 245 250 245 245 253 259 260 258 253 252 251 249 250 254 260 265 269 273 277 280 284 289 295 297 301 303 305
268 273 218 198 202 204 218 230 244 259 255 231 236 247 249 254 260 266 277 284 291 302 282 231 225 231 249 272 267 237 227 222 216 212 209 207 210 214 218 224 231 230 223 220 220 218 212 205 205 206 205 205 205 205 206 212 226 234 233 240 252 244 235 247 256 257 255 251 251 251 249 249 253 257 262 266 270 274 277 282 288 291 294 298 299 300
261 275 252 186 197 219 237 245 239 242 260 263 242 244 253 264 270 267 267 269 270 271 265 253 247 243 253 267 258 239 230 229 228 218 214 212 207 209 214 217 224 229 228 224 221 219 215 208 204 204 205 206 206 209 208 208 222 233 230 235 252 240 222 238 255 255 250 247 249 251 248 249 252 254 259 264 267 272 277 281 286 290 294 296 296 297
269 279 269 237 235 237 247 262 260 249 257 264 256 263 277 273 268 267 267 263 258 261 262 254 251 249 250 260 258 245 236 234 238 230 220 218 213 210 212 214 221 226 227 225 222 219 216 209 203 203 206 207 210 214 209 207 221 233 230 230 245 245 229 238 251 251 247 245 245 248 247 248 251 254 257 262 266 272 278 283 288 292 295 296 294 293
271 276 267 255 257 257 246 254 261 251 246 252 267 277 278 268 259 251 257 262 261 264 264 255 254 253 253 256 257 256 251 238 235 236 233 226 218 216 216 216 219 223 224 223 219 217 214 210 207 206 209 212 216 214 207 212 229 233 229 227 240 247 229 230 243 245 244 243 241 244 247 247 250 255 258 262 268 274 280 287 292 294 295 294 292 290
276 276 272 266 269 269 250 238 252 252 241 245 261 265 260 263 268 264 259 257 260 264 266 265 263 257 257 260 255 261 271 263 237 230 238 239 229 222 223 223 220 218 218 218 216 215 211 209 210 210 212 216 216 208 207 224 233 230 229 229 239 241 219 222 239 244 242 241 240 241 245 248 251 254 260 266 271 278 284 290 293 296 298 297 293 289
270 267 270 277 279 269 246 234 251 265 260 250 250 253 251 249 259 265 261 254 256 261 265 268 269 263 264 271 260 258 271 274 259 237 234 241 237 230 227 227 225 220 217 215 215 215 211 209 212 213 214 220 216 201 206 228 237 233 231 232 241 245 228 229 242 242 239 238 239 243 244 246 251 255 262 270 276 284 290 293 296 299 299 292 284 281
275 269 270 277 277 265 256 255 263 271 276 275 268 268 267 261 262 264 259 255 254 259 265 267 270 270 273 281 277 272 272 272 272 267 251 241 237 235 233 227 222 220 217 214 215 216 215 213 213 215 219 223 216 196 201 229 239 234 232 234 244 247 232 232 242 240 235 235 239 243 244 245 251 257 264 273 281 289 293 294 297 298 290 280 278 277
18 276 271 272 266 265 268 270 272 274 275 275 271 269 271 272 272 267 267 271 270 270 272 269 269 270 274 283 286 284 276 268 271 274 270 257 244 238 236 228 221 222 219 217 216 216 220 219 216 222 224 216 203 191 200 224 229 225 230 236 242 244 232 232 241 232 226 231 236 240 242 245 252 259 268 277 285 290 292 293 293 288 280 280 281 279
41 264 262 271 268 267 268 265 262 261 262 264 261 259 264 267 271 277 282 286 281 274 270 267 266 266 274 284 283 282 284 280 276 274 276 275 260 241 239 239 231 226 222 221 222 219 219 221 221 226 220 200 195 196 197 210 217 221 235 237 234 237 232 228 227 217 214 223 231 237 242 247 254 263 272 280 286 290 291 289 286 280 277 279 279 276
342 272 272 280 277 273 266 257 251 247 247 257 270 279 285 282 281 285 287 282 270 262 262 263 264 268 285 295 292 300 310 304 292 285 283 280 266 246 243 244 239 235 230 226 226 223 220 218 218 223 216 204 212 211 196 197 211 226 239 235 225 228 222 213 207 202 204 211 221 234 243 248 257 266 275 283 288 290 289 285 283 279 276 277 277 276
290 272 278 274 270 274 269 262 272 281 278 284 289 288 283 275 273 277 279 273 265 263 264 264 268 277 287 291 293 300 305 303 299 293 291 290 285 274 261 248 240 239 238 233 228 223 221 218 215 219 220 220 226 220 202 198 204 218 232 228 221 224 216 203 199 198 200 203 210 225 239 249 260 269 279 286 288 289 289 286 284 281 278 277 278 276
277 266 263 259 262 268 272 278 297 308 300 288 285 282 276 269 266 268 269 264 268 274 271 269 276 282 286 287 289 292 291 290 292 292 290 293 303 308 301 285 268 252 237 232 230 224 218 217 216 218 220 223 228 222 206 200 195 198 217 223 219 219 211 201 202 203 201 204 210 217 229 244 260 273 282 287 289 290 290 288 284 281 279 279 279 276
260 261 255 254 259 263 269 277 285 288 282 278 279 278 275 273 269 267 265 267 276 281 274 275 283 285 286 288 288 289 290 288 285 286 285 282 288 301 302 298 298 286 257 233 229 226 219 216 216 216 219 222 225 216 203 199 190 185 203 219 210 204 207 207 207 205 203 207 216 221 231 246 262 276 284 289 291 291 288 284 281 280 280 280 278 277
248 261 259 259 262 264 268 272 274 276 276 275 275 273 271 270 268 267 266 269 273 272 273 283 287 283 281 283 284 284 285 284 284 284 284 279 276 280 281 279 287 293 282 257 238 228 221 220 217 212 218 221 215 205 198 194 186 180 190 201 195 195 208 213 206 200 201 207 214 223 238 255 269 280 287 288 286 284 281 280 281 281 282 281 280 278
243 261 262 264 268 269 269 272 275 277 275 273 272 269 266 265 265 266 266 267 268 267 271 277 279 278 277 276 279 281 282 284 285 283 279 275 268 263 263 263 264 272 281 281 267 244 225 221 220 216 220 216 202 196 195 190 184 181 182 183 185 191 203 206 200 197 200 205 212 223 237 252 264 273 278 274 272 276 279 282 284 283 284 283 281 281
248 261 264 267 272 271 269 272 274 273 272 272 268 264 264 267 268 267 267 267 269 269 269 269 270 272 272 272 274 279 281 282 282 278 275 271 267 262 257 255 251 250 259 270 274 265 242 223 222 224 215 201 195 196 196 191 187 185 181 178 181 187 192 195 195 196 198 203 210 222 235 247 254 258 261 266 274 281 282 282 284 284 285 285 284 283
253 263 267 268 269 269 268 268 267 269 272 270 265 262 264 267 267 265 265 264 263 264 264 265 264 263 267 272 274 276 279 280 278 277 275 271 267 263 257 252 250 247 248 251 256 261 255 237 225 219 201 190 196 199 195 192 190 188 184 180 180 183 185 187 190 193 198 204 212 224 237 248 253 253 259 273 283 283 281 281 283 284 286 287 286 285
257 262 264 262 265 269 270 270 272 276 272 263 260 261 262 261 259 261 262 260 258 257 259 261 261 264 270 274 276 278 279 279 277 277 279 279 277 274 265 256 248 243 244 242 239 246 253 244 219 203 192 191 196 197 194 195 195 193 188 183 181 182 183 184 188 192 198 205 215 228 241 250 254 257 267 280 284 280 279 281 283 285 286 287 288 288
256 259 261 260 263 267 271 275 277 269 258 257 265 267 263 262 262 261 260 259 256 253 256 265 269 271 272 274 278 280 281 283 283 284 286 286 283 284 279 268 256 246 242 236 231 236 240 228 203 190 188 190 190 191 193 194 194 194 188 184 184 183 183 187 191 195 199 206 218 232 247 254 256 264 274 281 282 280 280 282 284 285 285 285 288 289
255 256 258 259 261 266 270 272 264 252 251 264 276 270 266 270 270 268 266 263 263 264 265 269 272 274 278 284 287 291 298 303 300 295 293 288 281 280 282 276 267 255 245 239 234 232 222 203 187 179 178 181 183 183 187 187 188 189 187 186 184 182 185 190 194 197 201 207 221 235 248 256 260 269 277 279 281 282 282 284 286 285 284 284 287 289
252 254 256 257 258 262 264 257 253 258 267 273 274 274 276 277 275 274 271 267 269 274 274 272 273 277 285 295 301 308 314 313 303 290 283 281 280 277 272 270 266 252 241 238 230 217 197 180 172 168 172 180 181 182 189 193 192 191 189 187 183 182 187 191 194 202 203 207 224 239 249 260 266 272 278 280 282 284 285 286 287 286 286 287 288 290
246 248 251 254 252 255 260 259 263 273 274 271 273 278 284 285 284 285 281 277 275 275 277 282 287 294 302 306 313 321 318 310 298 284 277 274 276 272 261 263 267 251 233 222 203 183 171 169 168 167 172 179 180 187 199 199 195 193 189 185 184 186 188 189 195 202 204 209 228 243 254 267 273 275 279 282 284 285 286 287 287 286 288 291 292 293
244 245 249 253 250 254 260 261 266 269 266 269 276 273 61 341 337 335 289 280 279 277 287 313 310 304 307 309 315 319 314 304 287 286 292 292 289 281 266 259 259 244 223 200 173 162 162 166 168 170 174 178 184 193 202 201 195 191 186 184 186 189 190 195 201 200 202 216 236 253 263 272 277 278 282 283 284 285 285 286 288 288 289 292 295 295
250 249 250 252 252 255 258 260 262 260 264 281 285 111 81 349 359 358 293 285 306 322 334 346 319 302 303 310 314 312 305 295 286 296 310 310 305 299 281 261 249 230 206 182 167 168 168 166 168 170 173 181 192 198 205 201 193 187 185 186 188 191 195 201 201 194 200 231 253 267 273 278 280 280 282 284 285 286 286 287 289 289 290 295 297 297
258 254 250 251 253 254 255 260 266 265 273 285 286 274 122 257 212 275 274 285 5 334 321 329 318 309 309 311 311 304 289 288 295 306 313 309 305 299 274 244 229 207 184 173 172 172 168 169 175 177 179 190 197 199 201 195 187 184 185 186 187 191 195 195 190 189 216 256 274 280 281 282 282 281 281 284 285 288 290 291 292 291 293 298 299 299
262 258 254 257 256 253 253 257 265 271 276 293 314 338 338 290 262 256 272 323 338 313 312 323 313 309 313 309 304 297 289 292 295 301 307 306 295 279 240 212 209 199 179 170 167 164 166 176 182 180 185 190 193 196 193 188 185 184 184 184 186 189 189 182 178 192 240 279 290 286 280 279 279 280 282 285 287 290 292 295 295 295 298 301 302 302
265 262 260 260 254 251 258 260 266 273 276 41 356 332 317 288 273 270 302 321 315 307 312 315 308 310 313 305 301 296 293 294 294 295 301 300 274 247 221 200 199 195 162 152 161 169 176 179 174 174 182 185 188 192 188 184 183 183 182 180 183 187 184 172 169 191 244 288 287 280 280 281 282 284 287 289 290 293 296 296 296 299 304 304 305 306
269 266 261 259 255 258 264 261 264 275 206 101 319 304 242 241 284 299 305 305 305 310 311 307 304 311 311 304 301 298 296 297 296 294 298 297 268 229 206 190 180 166 143 153 175 183 182 176 174 179 185 189 191 189 186 183 181 181 180 178 182 188 181 162 154 168 222 286 286 283 284 289 291 291 293 294 294 297 300 298 296 301 307 305 306 308
264 259 262 267 266 263 261 259 273 304 309 286 288 292 282 282 295 303 302 299 303 308 306 301 301 305 308 305 301 299 298 297 295 293 295 295 268 221 197 183 172 165 167 175 174 172 178 182 179 177 178 185 189 186 184 182 180 179 181 182 185 191 184 163 146 128 349 298 296 293 292 296 299 298 298 299 299 301 302 299 300 306 309 307 306 307
264 264 269 272 269 263 266 273 288 298 294 289 287 288 289 291 296 299 300 298 297 300 303 303 303 303 306 306 302 300 299 295 292 292 295 297 278 243 211 191 177 169 170 171 163 164 180 182 173 174 179 184 186 184 182 180 179 180 185 187 188 189 183 168 144 98 26 316 308 305 304 308 307 304 304 302 301 303 304 302 304 310 313 312 309 306
272 273 272 272 280 279 269 266 273 280 284 287 286 285 289 297 300 296 297 299 299 303 308 307 306 307 309 308 304 299 295 291 289 289 291 288 260 239 214 192 181 171 165 165 164 167 174 172 171 178 184 184 184 183 181 180 181 185 187 186 187 188 184 170 146 111 22 337 330 324 321 320 313 310 310 307 304 304 305 304 306 310 315 317 314 309
275 283 280 271 282 287 271 268 279 286 289 291 287 284 294 320 325 298 297 299 299 302 308 311 313 314 314 310 303 296 291 289 286 278 260 229 243 243 223 192 174 166 160 158 159 163 165 172 179 182 185 188 186 183 180 178 181 186 184 180 182 185 177 158 136 116 52 7 354 343 337 329 322 320 319 314 308 306 307 309 307 309 317 319 317 316
284 322 287 262 262 261 261 268 277 280 282 283 281 282 300 327 320 317 311 303 299 300 307 313 316 318 317 311 300 290 284 282 277 260 230 225 244 246 228 194 170 162 155 149 153 159 162 175 189 189 188 187 183 182 182 179 181 182 175 171 178 181 170 145 120 108 68 28 14 359 347 336 330 329 326 321 315 310 309 311 307 309 317 320 320 321
279 271 264 265 265 261 263 269 271 272 278 280 276 281 336 336 320 321 314 303 300 301 309 315 318 321 318 308 298 291 279 267 256 241 234 241 240 225 211 194 173 165 155 143 148 156 160 175 190 188 184 180 178 182 183 180 181 180 171 169 178 179 167 139 112 102 61 33 26 8 353 339 333 335 331 327 324 316 310 309 310 314 319 320 321 324
276 271 268 267 266 265 265 269 270 272 282 284 281 293 328 328 317 311 306 302 299 300 310 317 319 322 318 301 286 304 295 244 235 248 255 252 234 209 192 179 175 175 167 157 162 160 157 173 180 180 178 172 172 180 181 179 181 179 172 174 181 175 163 146 131 115 39 26 10 357 353 343 332 333 333 332 330 324 316 314 317 322 322 320 325 330
265 269 273 268 268 275 275 273 277 284 289 292 295 303 310 313 310 303 300 299 295 299 311 318 320 325 321 265 227 325 330 289 265 275 265 185 186 205 197 187 185 181 173 175 179 172 164 170 172 173 175 171 169 175 177 178 179 177 174 177 177 169 160 151 145 118 23 12 341 337 345 342 333 332 334 334 332 328 323 320 322 325 321 320 331 340
Height
1493 1493 1491 1489 1484 1482 1483 1485 1487 1486 1487 1487 1484 1485 1486 1485 1482 1477 1481 1488 1489 1492 1491 1487 1486 1484 1482 1481 1480 1485 1490 1493 1493 1493 1494 1495 1497 1497 1498 1499 1500 1501 1503 1504 1506 1508 1510 1513 1515 1517 1518 1520 1521 1522 1523 1525 1526 1527 1528 1528 1529 1529 1530 1531 1532 1533 1533 1534 1534 1534 1534 1534 1534 1533 1532 1531 1530 1529 1528 1527 1527 1528 1528 1528 1529 1529
1495 1494 1487 1484 1483 1482 1485 1489 1491 1492 1492 1492 1491 1491 1489 1486 1483 1479 1484 1489 1491 1496 1493 1487 1487 1484 1481 1480 1479 1480 1485 1489 1491 1492 1493 1494 1495 1496 1496 1497 1498 1499 1500 1502 1503 1504 1507 1510 1513 1515 1516 1518 1519 1521 1522 1523 1525 1526 1527 1528 1528 1528 1529 1530 1531 1531 1531 1532 1533 1533 1533 1533 1533 1532 1532 1531 1529 1527 1527 1526 1526 1527 1527 1527 1527 1528
1495 1491 1484 1484 1486 1487 1491 1493 1494 1495 1495 1495 1492 1491 1489 1484 1480 1481 1487 1490 1491 1496 1495 1489 1487 1482 1479 1480 1479 1479 1480 1484 1488 1490 1492 1492 1492 1493 1494 1495 1495 1496 1498 1498 1499 1502 1505 1508 1511 1513 1514 1516 1517 1519 1520 1522 1523 1525 1525 1527 1527 1527 1528 1528 1529 1530 1530 1530 1531 1531 1531 1532 1532 1531 1530 1529 1528 1527 1527 1526 1526 1526 1525 1525 1525 1526
1490 1486 1484 1486 1487 1490 1494 1495 1496 1497 1496 1495 1492 1491 1487 1481 1482 1485 1488 1491 1491 1495 1495 1490 1487 1482 1479 1480 1479 1479 1479 1480 1483 1486 1488 1490 1490 1490 1491 1492 1493 1494 1495 1496 1497 1501 1504 1506 1508 1510 1512 1513 1515 1517 1519 1520 1522 1523 1524 1525 1526 1526 1526 1527 1527 1528 1529 1529 1529 1530 1530 1530 1530 1529 1529 1528 1528 1527 1527 1526 1526 1524 1523 1523 1524 1525
1486 1485 1486 1489 1489 1492 1496 1496 1497 1498 1495 1492 1491 1490 1485 1481 1486 1488 1490 1494 1493 1493 1493 1492 1493 1485 1478 1479 1477 1476 1478 1478 1479 1481 1483 1485 1487 1488 1490 1491 1492 1493 1493 1494 1496 1500 1502 1504 1506 1508 1510 1511 1513 1515 1517 1518 1520 1521 1523 1524 1524 1524 1525 1525 1526 1526 1527 1528 1528 1528 1528 1528 1528 1528 1529 1529 1528 1527 1526 1526 1525 1523 1522 1522 1522 1523
1484 1487 1487 1488 1491 1492 1495 1495 1495 1497 1495 1490 1486 1487 1488 1487 1489 1490 1491 1496 1496 1494 1489 1491 1497 1484 1470 1473 1474 1471 1473 1474 1476 1477 1478 1480 1483 1486 1487 1488 1490 1491 1492 1493 1494 1498 1500 1502 1504 1506 1508 1510 1511 1513 1515 1516 1518 1520 1521 1522 1522 1523 1524 1524 1524 1525 1526 1527 1527 1528 1528 1528 1529 1529 1528 1528 1527 1527 1526 1525 1524 1523 1522 1521 1521 1521
1483 1488 1487 1488 1493 1492 1494 1493 1490 1492 1495 1492 1483 1483 1489 1490 1491 1492 1492 1495 1495 1490 1485 1489 1496 1486 1470 1468 1467 1467 1471 1472 1474 1475 1475 1477 1479 1482 1483 1485 1487 1489 1491 1493 1493 1495 1498 1500 1502 1503 1506 1507 1509 1511 1513 1515 1516 1518 1520 1520 1521 1522 1522 1522 1523 1524 1525 1525 1525 1526 1526 1527 1527 1527 1527 1526 1526 1526 1525 1524 1523 1522 1521 1521 1521 1520
1482 1489 1489 1490 1493 1492 1493 1491 1486 1487 1491 1491 1485 1483 1489 1490 1492 1493 1492 1493 1488 1482 1485 1486 1488 1490 1482 1468 1460 1463 1470 1471 1472 1473 1473 1474 1476 1478 1479 1481 1484 1486 1488 1490 1492 1494 1495 1498 1500 1501 1504 1505 1507 1510 1511 1513 1514 1515 1518 1518 1519 1520 1520 1520 1521 1522 1523 1524 1524 1524 1525 1525 1525 1525 1525 1525 1525 1524 1524 1524 1523 1522 1521 1521 1521 1520
1483 1489 1490 1491 1493 1491 1489 1484 1481 1485 1489 1488 1486 1485 1487 1489 1490 1490 1490 1490 1482 1482 1490 1482 1480 1493 1486 1465 1458 1463 1468 1469 1469 1470 1471 1472 1473 1474 1476 1478 1480 1483 1485 1488 1490 1492 1494 1496 1498 1500 1502 1504 1506 1508 1509 1511 1512 1513 1515 1516 1517 1518 1518 1518 1519 1520 1520 1522 1522 1522 1523 1523 1524 1524 1523 1523 1523 1523 1523 1523 1522 1522 1521 1520 1520 1520
1484 1487 1487 1488 1490 1487 1482 1476 1478 1485 1487 1486 1487 1487 1487 1487 1488 1489 1489 1486 1481 1487 1492 1479 1476 1489 1482 1459 1456 1464 1468 1467 1465 1465 1467 1468 1470 1472 1474 1477 1478 1480 1483 1485 1488 1490 1492 1494 1496 1498 1500 1502 1504 1506 1507 1509 1510 1512 1513 1514 1515 1516 1516 1516 1517 1518 1518 1519 1520 1521 1521 1522 1522 1522 1522 1522 1522 1522 1521 1521 1521 1521 1520 1520 1519 1519
1482 1485 1486 1486 1486 1482 1477 1478 1481 1486 1486 1486 1488 1488 1487 1487 1486 1488 1486 1484 1488 1490 1486 1475 1470 1481 1482 1462 1451 1456 1462 1462 1461 1462 1463 1465 1468 1470 1472 1474 1476 1478 1480 1482 1485 1487 1490 1492 1494 1496 1498 1500 1502 1504 1505 1507 1508 1509 1510 1511 1513 1513 1514 1514 1515 1516 1516 1517 1518 1519 1519 1520 1520 1521 1521 1521 1520 1520 1520 1520 1520 1519 1519 1519 1519 1518
1480 1484 1484 1483 1483 1481 1480 1482 1484 1484 1485 1487 1488 1486 1487 1487 1486 1489 1488 1490 1499 1495 1478 1466 1463 1477 1486 1468 1449 1450 1455 1459 1461 1461 1460 1462 1465 1468 1470 1473 1474 1476 1477 1480 1482 1485 1488 1491 1492 1494 1496 1498 1500 1501 1503 1504 1505 1507 1508 1509 1510 1511 1512 1512 1512 1513 1514 1515 1516 1516 1517 1518 1518 1519 1519 1519 1519 1519 1519 1519 1518 1518 1518 1517 1517 1517
1478 1477 1477 1479 1480 1480 1482 1483 1482 1483 1484 1486 1486 1486 1491 1490 1489 1494 1494 1493 1497 1488 1469 1459 1465 1479 1480 1463 1452 1453 1455 1458 1461 1460 1459 1460 1463 1466 1469 1471 1472 1474 1475 1477 1479 1482 1486 1489 1491 1492 1494 1496 1498 1499 1501 1502 1503 1504 1506 1507 1508 1508 1509 1509 1510 1511 1511 1512 1513 1514 1515 1516 1516 1517 1517 1518 1518 1517 1517 1517 1517 1516 1516 1516 1515 1515
1479 1473 1470 1475 1477 1477 1480 1480 1480 1482 1484 1485 1483 1485 1491 1492 1494 1495 1488 1483 1480 1473 1464 1461 1470 1481 1475 1460 1453 1453 1453 1455 1458 1460 1459 1459 1462 1465 1466 1468 1470 1471 1473 1474 1476 1478 1482 1486 1489 1491 1492 1493 1495 1497 1498 1499 1501 1502 1503 1504 1505 1506 1506 1507 1507 1508 1509 1509 1510 1511 1512 1513 1514 1514 1515 1516 1516 1516 1516 1515 1515 1515 1514 1514 1513 1513
1484 1478 1470 1472 1475 1476 1477 1475 1474 1474 1477 1479 1476 1477 1482 1485 1491 1492 1483 1479 1477 1472 1471 1473 1479 1483 1475 1461 1451 1449 1450 1451 1455 1458 1459 1460 1462 1464 1465 1466 1467 1468 1470 1472 1473 1474 1477 1482 1486 1488 1490 1491 1493 1494 1496 1497 1498 1499 1501 1502 1503 1504 1504 1505 1505 1506 1506 1507 1508 1509 1510 1511 1512 1512 1513 1513 1514 1514 1514 1514 1513 1513 1513 1512 1511 1510
1484 1479 1467 1468 1473 1473 1474 1472 1470 1472 1473 1472 1470 1475 1479 1475 1479 1485 1483 1479 1481 1483 1481 1477 1477 1472 1464 1455 1448 1450 1451 1450 1453 1454 1455 1458 1460 1462 1464 1465 1465 1466 1466 1469 1470 1472 1475 1478 1482 1486 1488 1489 1491 1492 1493 1495 1496 1497 1498 1499 1501 1502 1502 1502 1503 1504 1504 1505 1505 1506 1507 1508 1509 1510 1511 1511 1511 1512 1512 1512 1512 1511 1511 1510 1509 1508
1486 1479 1465 1468 1473 1471 1472 1470 1467 1473 1474 1471 1473 1476 1472 1466 1470 1480 1484 1478 1482 1491 1482 1472 1471 1465 1459 1456 1449 1448 1450 1449 1451 1452 1453 1455 1457 1459 1462 1462 1464 1464 1465 1467 1468 1470 1473 1475 1479 1482 1485 1487 1488 1490 1491 1492 1494 1495 1496 1497 1498 1500 1500 1500 1501 1502 1502 1503 1503 1504 1505 1506 1507 1508 1509 1509 1509 1509 1510 1510 1510 1509 1509 1508 1507 1506
1484 1483 1471 1469 1472 1469 1469 1469 1466 1468 1471 1472 1474 1471 1466 1467 1468 1476 1486 1484 1485 1490 1479 1470 1471 1467 1464 1461 1449 1445 1447 1448 1450 1450 1451 1454 1455 1457 1458 1460 1462 1462 1463 1465 1466 1469 1471 1473 1477 1479 1482 1484 1486 1488 1489 1490 1492 1493 1494 1495 1496 1497 1498 1498 1499 1499 1500 1500 1501 1501 1502 1503 1504 1505 1506 1507 1507 1507 1507 1507 1507 1507 1506 1505 1505 1504
1482 1487 1476 1467 1469 1467 1466 1472 1472 1468 1466 1468 1469 1465 1468 1477 1477 1476 1486 1490 1490 1490 1481 1471 1467 1462 1459 1455 1448 1446 1444 1444 1447 1449 1450 1452 1453 1455 1456 1457 1459 1460 1462 1463 1464 1467 1469 1471 1474 1477 1480 1482 1483 1485 1486 1487 1490 1491 1492 1492 1493 1494 1495 1496 1496 1497 1498 1498 1499 1499 1500 1501 1502 1503 1503 1504 1504 1504 1505 1505 1504 1504 1503 1502 1502 1501
1481 1490 1484 1469 1466 1467 1467 1473 1475 1470 1465 1465 1466 1465 1466 1473 1475 1472 1476 1481 1485 1488 1484 1475 1468 1459 1450 1444 1444 1446 1443 1442 1445 1448 1450 1450 1450 1453 1455 1455 1457 1458 1460 1461 1463 1465 1467 1469 1472 1474 1477 1479 1480 1481 1482 1485 1487 1488 1489 1489 1490 1491 1492 1493 1494 1494 1495 1496 1496 1497 1498 1499 1499 1500 1501 1501 1501 1502 1502 1501 1501 1500 1500 1499 1498 1498
1482 1489 1489 1476 1468 1470 1470 1470 1470 1467 1466 1468 1470 1469 1467 1468 1469 1469 1469 1468 1473 1479 1481 1479 1474 1458 1442 1437 1441 1443 1443 1442 1442 1443 1447 1448 1448 1451 1453 1454 1456 1458 1459 1460 1461 1463 1465 1467 1470 1472 1474 1475 1477 1478 1479 1483 1485 1485 1486 1487 1487 1489 1489 1490 1491 1492 1493 1493 1494 1495 1495 1496 1497 1498 1498 1498 1498 1498 1498 1498 1497 1497 1496 1496 1496 1495
1486 1489 1492 1486 1479 1475 1469 1463 1462 1462 1462 1466 1468 1467 1465 1465 1468 1474 1474 1465 1462 1468 1471 1473 1473 1457 1440 1438 1439 1439 1441 1442 1440 1441 1443 1445 1447 1449 1451 1453 1455 1456 1458 1459 1460 1461 1463 1464 1467 1469 1471 1472 1474 1475 1476 1479 1482 1483 1483 1484 1485 1486 1487 1488 1488 1489 1490 1491 1492 1492 1493 1494 1494 1495 1495 1495 1495 1495 1495 1494 1494 1494 1494 1493 1493 1492
1491 1492 1493 1490 1482 1475 1467 1462 1462 1461 1460 1463 1465 1464 1464 1465 1469 1476 1478 1470 1465 1465 1462 1465 1469 1456 1441 1439 1440 1440 1441 1441 1441 1442 1442 1443 1447 1448 1450 1452 1454 1455 1456 1457 1458 1459 1461 1462 1464 1466 1467 1469 1472 1473 1474 1476 1479 1480 1480 1481 1482 1483 1484 1485 1486 1487 1488 1488 1489 1490 1491 1491 1492 1492 1493 1493 1493 1492 1492 1492 1491 1491 1491 1490 1490 1490
1494 1493 1492 1488 1477 1469 1464 1460 1459 1460 1461 1463 1462 1462 1464 1465 1467 1471 1473 1474 1476 1475 1469 1471 1471 1456 1442 1441 1441 1441 1441 1441 1442 1443 1443 1444 1445 1447 1450 1451 1452 1453 1454 1455 1456 1457 1458 1460 1461 1462 1464 1466 1469 1471 1472 1474 1476 1477 1478 1479 1480 1481 1482 1483 1484 1485 1486 1486 1487 1487 1488 1489 1489 1490 1490 1490 1490 1489 1489 1489 1488 1488 1488 1487 1487 1486
1497 1494 1492 1491 1485 1477 1471 1465 1461 1458 1460 1464 1465 1466 1468 1468 1470 1472 1473 1476 1480 1478 1473 1475 1471 1455 1444 1443 1442 1442 1444 1445 1444 1444 1444 1445 1444 1445 1448 1449 1450 1451 1452 1453 1454 1454 1455 1457 1458 1459 1461 1463 1466 1468 1469 1471 1473 1474 1475 1476 1477 1478 1480 1481 1482 1483 1484 1484 1485 1485 1486 1486 1487 1487 1487 1487 1487 1487 1487 1486 1486 1485 1485 1484 1483 1483
1497 1494 1494 1496 1494 1488 1481 1473 1467 1465 1465 1467 1468 1470 1471 1471 1473 1477 1479 1480 1479 1473 1468 1471 1468 1456 1448 1447 1447 1447 1449 1449 1447 1446 1446 1446 1445 1445 1445 1446 1447 1448 1449 1450 1451 1451 1452 1453 1455 1456 1458 1460 1462 1464 1466 1468 1470 1471 1472 1473 1475 1476 1477 1479 1480 1481 1482 1483 1483 1483 1484 1484 1484 1485 1485 1485 1484 1484 1484 1483 1483 1482 1481 1481 1480 1479
1498 1495 1493 1494 1491 1485 1478 1471 1467 1470 1473 1473 1471 1470 1469 1468 1469 1474 1480 1479 1473 1468 1466 1466 1464 1459 1454 1452 1451 1450 1451 1450 1449 1448 1447 1447 1447 1447 1446 1446 1446 1445 1445 1446 1447 1448 1449 1450 1451 1453 1455 1457 1459 1461 1464 1466 1467 1467 1469 1471 1472 1473 1475 1476 1478 1479 1480 1481 1481 1482 1482 1482 1482 1482 1482 1482 1482 1481 1481 1480 1479 1479 1478 1478 1477 1476
1498 1496 1492 1491 1487 1480 1475 1472 1471 1473 1476 1475 1473 1471 1469 1467 1465 1469 1475 1473 1469 1471 1469 1462 1461 1464 1460 1455 1452 1451 1451 1450 1449 1449 1448 1447 1447 1447 1447 1446 1446 1445 1443 1442 1443 1444 1444 1446 1448 1450 1452 1455 1456 1459 1461 1463 1464 1464 1465 1468 1470 1471 1472 1474 1475 1476 1477 1478 1479 1479 1480 1480 1480 1480 1480 1479 1479 1478 1478 1477 1477 1476 1475 1475 1473 1472
1497 1495 1490 1488 1484 1478 1474 1473 1472 1472 1473 1472 1471 1469 1468 1467 1466 1467 1470 1470 1470 1473 1470 1463 1462 1465 1461 1456 1451 1449 1449 1449 1448 1448 1447 1446 1445 1445 1445 1445 1445 1445 1443 1441 1441 1441 1441 1442 1444 1446 1449 1452 1454 1457 1459 1460 1461 1461 1462 1465 1467 1468 1470 1471 1472 1474 1475 1476 1476 1477 1477 1477 1477 1477 1477 1477 1476 1476 1476 1475 1474 1473 1472 1471 1470 1469
1493 1491 1487 1487 1483 1477 1474 1472 1470 1471 1472 1471 1470 1467 1464 1463 1464 1465 1465 1465 1465 1466 1465 1463 1463 1462 1458 1453 1448 1445 1446 1446 1446 1446 1444 1442 1441 1441 1441 1442 1442 1443 1442 1440 1440 1439 1438 1439 1441 1443 1446 1448 1451 1454 1456 1458 1459 1459 1460 1462 1464 1466 1467 1468 1470 1471 1473 1474 1474 1475 1475 1475 1475 1475 1475 1475 1474 1474 1473 1472 1471 1470 1469 1468 1467 1466
1490 1488 1485 1486 1484 1478 1474 1473 1473 1472 1471 1470 1466 1460 1459 1461 1462 1462 1461 1461 1463 1463 1462 1463 1464 1460 1453 1448 1446 1444 1443 1443 1443 1442 1440 1438 1437 1436 1436 1436 1436 1438 1438 1438 1439 1438 1436 1436 1437 1439 1442 1445 1449 1452 1454 1456 1456 1457 1459 1460 1462 1463 1465 1466 1467 1469 1470 1471 1472 1472 1473 1473 1473 1473 1473 1473 1472 1472 1471 1470 1469 1468 1466 1465 1464 1463
1489 1489 1485 1486 1486 1478 1471 1473 1472 1469 1469 1468 1460 1456 1459 1462 1462 1460 1460 1461 1463 1463 1463 1464 1462 1455 1447 1444 1443 1442 1440 1439 1438 1437 1435 1434 1433 1432 1431 1430 1430 1432 1434 1435 1436 1437 1437 1436 1435 1436 1439 1443 1447 1450 1452 1453 1454 1456 1457 1458 1460 1461 1463 1464 1465 1467 1468 1469 1470 1470 1470 1471 1471 1471 1471 1471 1471 1470 1469 1468 1467 1465 1464 1462 1461 1459
1487 1487 1484 1486 1485 1475 1469 1469 1468 1469 1472 1464 1452 1452 1458 1459 1458 1458 1458 1457 1458 1459 1460 1459 1454 1448 1443 1442 1441 1439 1438 1436 1434 1433 1432 1431 1431 1430 1428 1424 1423 1424 1427 1429 1431 1433 1436 1435 1434 1434 1437 1441 1444 1447 1449 1451 1452 1454 1455 1457 1458 1460 1461 1462 1463 1465 1466 1467 1468 1468 1468 1469 1469 1469 1468 1468 1468 1468 1466 1465 1464 1463 1461 1459 1457 1455
1486 1486 1483 1483 1481 1474 1468 1468 1471 1476 1472 1455 1444 1449 1452 1452 1453 1453 1453 1452 1451 1450 1450 1450 1447 1443 1441 1440 1438 1437 1435 1433 1433 1432 1431 1431 1430 1430 1427 1422 1418 1417 1420 1423 1425 1429 1432 1433 1432 1433 1436 1439 1443 1445 1447 1449 1450 1452 1454 1455 1456 1458 1459 1460 1462 1463 1464 1465 1465 1466 1466 1466 1466 1466 1466 1466 1466 1465 1463 1463 1461 1460 1458 1456 1454 1451
1485 1485 1483 1480 1478 1472 1467 1469 1477 1476 1461 1446 1444 1447 1446 1446 1447 1447 1446 1446 1445 1443 1443 1445 1445 1442 1439 1438 1438 1438 1436 1435 1434 1433 1432 1431 1429 1427 1426 1423 1418 1415 1416 1418 1421 1425 1428 1429 1430 1432 1435 1438 1441 1443 1445 1447 1448 1450 1452 1453 1454 1456 1457 1459 1460 1461 1462 1463 1463 1463 1464 1464 1464 1464 1464 1463 1462 1462 1461 1460 1459 1457 1455 1452 1450 1448
1481 1482 1480 1478 1476 1473 1469 1470 1470 1462 1449 1444 1445 1444 1443 1445 1445 1446 1446 1444 1441 1441 1440 1440 1439 1437 1437 1439 1439 1439 1438 1436 1433 1431 1430 1429 1426 1424 1425 1424 1420 1415 1413 1415 1419 1422 1424 1426 1428 1431 1434 1437 1440 1441 1443 1445 1447 1448 1450 1451 1453 1454 1456 1457 1459 1460 1460 1460 1461 1461 1461 1462 1462 1461 1461 1460 1459 1459 1458 1457 1455 1453 1451 1449 1446 1444
1473 1474 1473 1473 1473 1472 1470 1465 1459 1455 1451 1448 1445 1444 1447 1448 1448 1450 1452 1447 1441 1441 1439 1438 1438 1438 1439 1440 1439 1439 1438 1435 1430 1425 1424 1425 1423 1421 1422 1422 1420 1415 1413 1415 1418 1420 1422 1425 1428 1431 1433 1436 1438 1439 1441 1443 1445 1446 1448 1449 1451 1453 1454 1456 1457 1458 1458 1458 1459 1459 1459 1460 1459 1459 1458 1457 1457 1456 1455 1454 1452 1450 1448 1445 1443 1440
1465 1465 1467 1470 1469 1467 1468 1466 1463 1461 1456 1448 1444 1445 1450 1452 1451 1454 1457 1450 1440 1438 1439 1440 1442 1443 1443 1442 1441 1440 1438 1434 1427 1421 1421 1422 1421 1419 1419 1419 1418 1415 1414 1416 1416 1418 1422 1425 1427 1430 1432 1434 1435 1437 1439 1441 1443 1445 1446 1447 1449 1451 1453 1454 1455 1456 1456 1457 1457 1457 1457 1457 1457 1457 1456 1455 1454 1453 1452 1450 1448 1446 1444 1442 1439 1436
1459 1459 1462 1467 1466 1465 1469 1469 1466 1461 1452 1444 1444 1447 1452 1454 1454 1459 1462 1451 1439 1440 1443 1442 1443 1445 1443 1442 1441 1440 1438 1434 1425 1420 1421 1422 1419 1418 1418 1417 1415 1414 1414 1414 1415 1418 1421 1424 1426 1429 1430 1431 1433 1435 1437 1440 1441 1443 1444 1446 1448 1450 1451 1453 1454 1454 1454 1455 1455 1455 1455 1455 1455 1454 1454 1453 1452 1450 1449 1447 1445 1443 1441 1439 1435 1432
1457 1457 1459 1462 1463 1464 1467 1465 1459 1453 1447 1443 1444 1447 1451 1453 1456 1464 1465 1450 1440 1444 1445 1443 1444 1444 1442 1441 1441 1439 1437 1432 1425 1421 1422 1421 1418 1417 1416 1414 1413 1413 1413 1413 1414 1417 1420 1423 1425 1427 1428 1429 1431 1433 1436 1438 1439 1441 1443 1445 1447 1448 1450 1451 1452 1452 1453 1453 1453 1453 1453 1453 1453 1452 1451 1450 1449 1448 1446 1445 1443 1440 1438 1435 1432 1429
1457 1457 1457 1459 1461 1463 1462 1459 1454 1450 1447 1445 1447 1448 1450 1452 1456 1461 1456 1444 1441 1445 1443 1441 1442 1442 1440 1440 1438 1436 1435 1432 1427 1424 1423 1419 1417 1416 1415 1413 1413 1413 1413 1413 1414 1416 1419 1422 1424 1425 1426 1428 1430 1432 1434 1436 1438 1440 1442 1444 1446 1447 1449 1450 1450 1451 1451 1451 1451 1452 1452 1452 1451 1450 1449 1448 1446 1445 1444 1442 1440 1437 1434 1432 1429 1425
1460 1459 1457 1457 1459 1459 1454 1450 1450 1448 1447 1449 1451 1451 1451 1453 1453 1450 1445 1442 1443 1443 1440 1439 1440 1438 1438 1438 1436 1434 1432 1430 1427 1424 1421 1419 1417 1417 1417 1415 1414 1413 1413 1413 1414 1417 1419 1421 1422 1423 1425 1426 1428 1430 1433 1435 1437 1439 1441 1443 1445 1447 1448 1448 1448 1449 1449 1450 1450 1450 1450 1449 1449 1448 1447 1446 1444 1443 1441 1439 1437 1435 1432 1429 1425 1422
1459 1461 1460 1456 1454 1455 1454 1452 1452 1450 1448 1450 1452 1451 1452 1452 1448 1444 1443 1443 1443 1442 1440 1439 1437 1437 1437 1435 1434 1432 1430 1427 1425 1422 1420 1418 1416 1416 1416 1414 1413 1414 1414 1414 1416 1418 1419 1420 1421 1422 1423 1425 1427 1429 1431 1434 1436 1438 1440 1442 1444 1446 1447 1447 1447 1448 1448 1448 1449 1448 1448 1448 1447 1446 1445 1444 1442 1441 1439 1437 1435 1432 1429 1426 1423 1419
1456 1459 1459 1453 1450 1454 1455 1450 1446 1444 1444 1446 1448 1448 1447 1447 1445 1444 1444 1443 1442 1443 1442 1439 1436 1436 1436 1433 1432 1430 1428 1426 1424 1420 1418 1417 1416 1416 1416 1414 1413 1414 1415 1416 1416 1417 1418 1419 1419 1421 1422 1424 1426 1428 1430 1432 1434 1436 1439 1441 1443 1446 1447 1446 1446 1446 1447 1447 1447 1447 1447 1447 1446 1445 1443 1442 1440 1439 1437 1435 1432 1430 1427 1424 1421 1417
1455 1456 1457 1452 1449 1451 1451 1445 1442 1442 1443 1443 1443 1442 1442 1442 1442 1443 1444 1443 1442 1441 1439 1437 1436 1434 1433 1432 1430 1428 1426 1424 1422 1419 1419 1418 1418 1418 1418 1416 1414 1414 1414 1415 1415 1416 1417 1418 1418 1420 1422 1424 1426 1427 1429 1431 1433 1435 1438 1441 1443 1445 1446 1446 1445 1445 1445 1446 1446 1446 1446 1445 1444 1443 1442 1440 1438 1437 1435 1433 1431 1428 1425 1422 1418 1415
1453 1454 1455 1452 1451 1451 1448 1443 1443 1443 1442 1442 1441 1440 1440 1440 1441 1442 1443 1443 1442 1440 1438 1437 1435 1432 1431 1430 1428 1426 1425 1423 1421 1419 1419 1419 1420 1420 1419 1417 1415 1414 1413 1414 1415 1415 1416 1417 1418 1420 1422 1423 1425 1427 1428 1430 1432 1435 1438 1440 1442 1444 1445 1445 1444 1444 1445 1445 1445 1445 1445 1444 1443 1442 1440 1438 1437 1435 1433 1431 1429 1426 1423 1419 1416 1412
1453 1455 1455 1454 1457 1458 1451 1442 1441 1443 1442 1441 1441 1440 1439 1440 1440 1440 1441 1441 1440 1438 1436 1435 1433 1431 1430 1428 1426 1425 1423 1421 1420 1419 1418 1418 1419 1419 1418 1416 1414 1414 1414 1414 1414 1415 1416 1417 1418 1419 1421 1423 1424 1426 1428 1430 1432 1434 1437 1439 1441 1443 1444 1444 1443 1443 1444 1444 1444 1444 1443 1442 1441 1440 1438 1437 1435 1433 1431 1429 1427 1424 1421 1417 1414 1410
1454 1457 1456 1455 1456 1456 1449 1442 1442 1443 1441 1439 1438 1438 1439 1440 1439 1439 1439 1438 1438 1436 1434 1433 1432 1430 1428 1426 1424 1423 1420 1419 1419 1419 1418 1418 1418 1418 1417 1415 1413 1414 1414 1413 1414 1414 1415 1416 1417 1418 1420 1422 1423 1425 1428 1429 1431 1434 1436 1439 1441 1443 1443 1443 1442 1443 1443 1443 1443 1443 1442 1441 1440 1438 1437 1435 1434 1432 1429 1427 1425 1422 1419 1416 1412 1407
1454 1454 1452 1450 1449 1447 1443 1440 1440 1440 1438 1437 1437 1437 1438 1439 1438 1436 1436 1436 1436 1434 1432 1431 1431 1429 1427 1424 1422 1420 1419 1418 1418 1419 1419 1418 1417 1417 1416 1414 1413 1414 1413 1413 1414 1414 1414 1416 1416 1417 1419 1421 1423 1425 1427 1429 1431 1433 1435 1438 1440 1442 1443 1442 1442 1442 1443 1442 1442 1441 1441 1440 1439 1437 1436 1434 1432 1430 1428 1425 1423 1420 1417 1414 1411 1407
1453 1450 1447 1445 1443 1440 1439 1438 1439 1439 1436 1434 1434 1435 1435 1436 1435 1434 1434 1434 1434 1433 1431 1430 1429 1427 1425 1422 1420 1419 1418 1417 1418 1418 1418 1416 1416 1416 1415 1414 1413 1413 1412 1413 1414 1414 1415 1416 1416 1417 1419 1421 1422 1424 1426 1428 1431 1433 1435 1438 1440 1441 1442 1441 1441 1442 1442 1441 1441 1441 1440 1439 1438 1437 1435 1433 1431 1429 1426 1424 1421 1418 1415 1412 1409 1405
1450 1446 1445 1444 1440 1437 1436 1437 1437 1437 1434 1431 1432 1433 1433 1433 1433 1433 1433 1433 1432 1431 1430 1429 1427 1425 1423 1421 1420 1419 1417 1417 1417 1417 1416 1416 1416 1416 1415 1414 1413 1412 1413 1414 1414 1414 1414 1415 1416 1417 1418 1420 1422 1424 1425 1428 1430 1432 1435 1438 1439 1440 1441 1441 1441 1441 1441 1441 1440 1439 1438 1438 1437 1436 1434 1432 1430 1427 1425 1423 1421 1418 1414 1411 1407 1403